Date,TemperatureHighF,TemperatureAvgF,TemperatureLowF,DewpointHighF,DewpointAvgF,DewpointLowF,HumidityHigh,HumidityAvg,HumidityLow,PressureMaxIn,PressureMinIn,WindSpeedMaxMPH,WindSpeedAvgMPH,GustSpeedMaxMPH,PrecipitationSumIn
2013-1-1,23,18,13,16,11,4,88,75,54,30.02,29.90,13,5,26,0.00
2013-1-2,26,20,17,23,15,6,92,82,58,30.02,29.87,24,6,30,0.00
2013-1-3,29,24,21,24,20,13,96,84,64,29.96,29.80,23,7,31,0.00
2013-1-4,33,29,27,26,22,19,86,76,62,30.00,29.71,28,7,44,0.00
2013-1-5,33,30,27,27,22,19,84,73,63,30.11,29.75,9,5,18,0.00
2013-1-6,32,27,23,29,22,16,92,81,69,30.17,29.71,9,4,19,0.00
2013-1-7,36,32,23,30,26,16,84,79,74,30.17,29.80,45,19,54,0.00
2013-1-8,38,34,30,32,29,26,94,84,65,30.06,29.84,11,4,20,0.00
2013-1-9,37,34,31,33,29,23,92,80,62,30.32,29.69,26,9,32,0.00
2013-1-10,37,33,26,30,27,22,92,78,63,30.45,30.08,13,6,19,0.00
2013-1-11,40,36,34,40,35,26,99,94,66,30.10,29.59,17,8,24,0.00
2013-1-12,42,38,33,42,35,29,99,91,79,29.87,29.52,24,12,36,0.00
2013-1-13,33,29,24,29,25,21,94,84,74,29.87,29.77,10,4,16,0.00
2013-1-14,26,21,17,21,15,9,89,76,51,30.24,29.85,13,7,24,0.00
2013-1-15,30,26,15,22,16,7,77,68,59,30.24,29.93,27,14,41,0.00
2013-1-16,32,28,16,29,22,9,99,77,61,29.95,29.51,37,17,55,0.00
2013-1-17,16,10,0,10,2,-4,85,71,51,30.20,29.88,16,7,27,0.00
2013-1-18,22,14,8,20,10,1,93,83,68,30.24,29.66,24,9,30,0.00
2013-1-19,34,26,21,34,24,17,99,94,84,29.73,29.30,20,5,36,0.00
2013-1-20,25,12,6,20,6,-6,87,75,56,30.05,29.33,26,11,40,0.00
2013-1-21,9,4,-3,1,-4,-10,83,70,58,30.00,29.81,17,10,30,0.00
2013-1-22,4,-2,-9,-4,-9,-13,79,72,60,30.13,29.95,15,6,28,0.00
2013-1-23,15,7,1,3,-1,-7,83,69,55,30.19,29.93,14,5,24,0.00
2013-1-24,12,1,-16,8,-5,-21,87,76,64,30.55,30.17,15,4,19,0.00
2013-1-25,18,14,9,16,10,4,92,86,69,30.37,29.89,19,7,24,0.00
2013-1-26,23,14,3,14,10,0,92,85,69,30.31,29.93,4,2,9,0.00
2013-1-27,22,19,13,19,15,11,90,86,82,30.31,30.23,17,9,21,0.00
2013-1-28,32,30,27,31,29,27,99,95,87,29.92,29.77,5,2,11,0.00
2013-1-29,37,33,29,37,32,28,99,97,91,29.92,29.41,13,6,24,0.00
2013-1-30,35,29,14,34,29,12,99,98,92,29.43,29.07,14,7,25,0.00
2013-1-31,15,13,8,13,9,4,93,86,76,29.75,29.10,12,6,22,0.00
2013-2-1,16,11,9,10,7,5,90,83,68,29.99,29.74,11,5,19,0.00
2013-2-2,15,7,-1,6,0,-6,87,73,56,29.98,29.94,11,4,15,0.00
2013-2-3,17,7,-4,11,2,-9,88,80,65,29.94,29.71,14,5,26,0.00
2013-2-4,17,5,-8,8,-1,-12,83,76,64,29.92,29.82,11,4,21,0.00
2013-2-5,22,10,-9,21,7,-13,96,85,75,29.90,29.56,23,7,27,0.00
2013-2-6,19,12,-6,15,7,-10,92,80,65,30.16,29.88,9,5,16,0.00
2013-2-7,16,14,12,14,11,9,92,86,82,30.17,30.06,13,9,25,0.00
2013-2-8,22,15,1,13,8,-4,90,75,57,30.34,30.08,11,6,23,0.00
2013-2-9,23,10,-6,14,4,-10,90,79,69,30.35,30.10,14,6,19,0.00
2013-2-10,32,26,19,31,21,12,95,82,72,30.11,29.61,21,10,41,0.00
2013-2-11,36,32,25,36,30,20,99,94,80,29.65,29.27,24,14,34,0.00
2013-2-12,29,26,24,23,20,18,91,81,68,29.85,29.65,13,6,24,0.00
2013-2-13,36,30,26,31,27,21,95,88,73,29.75,29.59,14,7,19,0.00
2013-2-14,35,30,24,34,29,19,99,94,83,29.75,29.56,19,6,34,0.00
2013-2-15,24,17,4,20,12,-1,87,78,64,30.04,29.73,14,6,24,0.00
2013-2-16,17,8,-1,4,0,-5,85,71,49,30.09,29.99,11,4,21,0.00
2013-2-17,19,10,0,12,3,-4,85,74,57,30.11,29.99,15,4,20,0.00
2013-2-18,33,23,16,29,15,8,91,72,51,29.99,29.40,16,9,26,0.00
2013-2-19,34,26,12,34,25,6,99,94,80,29.76,29.07,16,9,28,0.00
2013-2-20,15,11,8,10,5,1,82,77,69,30.22,29.75,14,9,27,0.00
2013-2-21,22,14,7,14,9,4,89,79,64,30.39,30.21,11,5,21,0.00
2013-2-22,26,19,8,26,16,6,99,91,87,30.31,29.75,14,9,29,0.00
2013-2-23,32,27,20,31,25,17,99,95,82,29.76,29.69,6,3,10,0.00
2013-2-24,34,22,9,26,18,6,95,84,65,30.06,29.75,9,4,16,0.00
2013-2-25,32,29,25,28,25,22,93,86,78,30.12,30.06,7,3,11,0.00
2013-2-26,34,31,28,29,25,22,94,82,63,30.12,29.80,16,7,28,0.00
2013-2-27,35,31,27,30,28,23,99,86,77,29.80,29.65,13,8,31,0.00
2013-2-28,33,29,20,30,20,11,90,71,51,30.06,29.68,15,9,30,0.00
2013-3-1,27,19,12,11,9,6,82,65,50,30.17,30.04,11,6,23,0.00
2013-3-2,27,16,8,13,8,3,80,68,52,30.15,30.02,14,6,26,0.00
2013-3-3,26,14,3,17,8,0,89,77,49,30.04,29.97,11,5,20,0.00
2013-3-4,31,15,-3,17,3,-7,87,63,22,30.10,30.02,8,4,14,0.00
2013-3-5,32,22,10,21,12,5,83,67,50,30.11,29.99,11,6,18,0.00
2013-3-6,37,31,26,30,24,20,94,78,63,30.20,30.04,12,5,24,0.00
2013-3-7,32,26,22,22,19,16,86,75,62,30.37,30.20,12,5,18,0.00
2013-3-8,35,27,19,28,24,17,94,85,70,30.44,30.29,8,3,11,0.00
2013-3-9,40,31,22,32,25,17,95,79,52,30.30,29.89,13,7,23,0.00
2013-3-10,38,35,33,38,34,32,99,97,95,29.92,29.74,13,5,19,0.00
2013-3-11,40,36,33,40,36,32,99,99,98,29.83,29.39,16,8,36,0.00
2013-5-16,62,49,44,40,7,-100,74,51,42,30.73,30.54,15,10,0,0.00
2013-5-17,62,49,35,45,34,-100,96,68,43,30.86,30.73,13,6,0,0.00
2013-5-18,59,51,42,43,40,38,89,67,53,30.86,30.71,13,8,0,0.00
2013-5-19,64,51,48,49,44,42,84,76,59,30.72,30.53,12,8,0,0.00
2013-5-20,59,58,56,55,52,50,86,81,74,30.57,30.51,22,13,0,0.00
2013-5-21,60,54,51,57,54,51,100,98,89,0.00,40.00,17,12,0,0.00
2013-5-22,60,56,52,60,55,52,100,97,86,0.00,40.00,13,7,0,0.00
2013-5-23,52,45,39,52,37,30,100,74,48,0.00,40.00,20,15,0,0.00
2013-5-24,53,42,30,43,34,27,94,72,40,0.00,40.00,12,8,0,0.00
2013-5-25,57,46,33,46,37,29,89,71,53,0.00,40.00,9,4,0,0.00
2013-5-26,61,50,33,45,39,30,93,69,43,0.00,40.00,8,3,0,0.00
2013-5-27,68,52,33,46,35,30,95,58,26,0.00,40.00,15,7,0,0.00
2013-5-28,53,50,47,50,42,35,100,74,52,0.00,40.00,15,11,0,0.00
2013-5-29,52,49,48,52,49,48,100,100,98,0.00,40.00,9,4,0,0.00
2013-5-30,76,66,52,69,61,52,100,83,67,0.00,40.00,9,7,0,0.00
2013-5-31,63,63,63,59,59,59,85,85,85,0.00,40.00,14,14,0,0.00
2013-6-1,59,59,59,58,58,58,95,95,95,0.00,40.00,8,8,0,0.00
2013-6-2,54,46,43,54,42,36,100,88,66,0.00,40.00,20,15,0,0.00
2013-6-3,58,49,37,41,30,24,89,49,44,0.00,40.00,15,9,0,0.00
2013-6-4,64,51,38,54,38,22,93,63,39,0.00,40.00,7,4,0,0.00
2013-6-5,63,52,41,55,45,36,100,77,62,0.00,40.00,10,6,0,0.00
2013-6-6,66,56,46,47,40,28,96,59,28,0.00,40.00,14,8,0,0.00
2013-6-7,67,55,44,42,36,25,79,51,28,0.00,40.00,8,5,0,0.00
2013-6-8,62,52,40,52,43,26,95,73,42,0.00,40.00,8,3,0,0.00
2013-6-9,72,58,39,55,46,38,100,71,37,0.00,40.00,15,7,0,0.00
2013-6-10,69,61,56,60,52,46,93,74,62,0.00,40.00,14,10,0,0.00
2013-6-11,70,63,56,65,59,55,100,87,73,0.00,40.00,8,3,0,0.00
2013-6-12,67,59,54,67,57,50,99,94,72,0.00,40.00,8,3,0,0.00
2013-6-13,72,61,50,55,51,47,91,71,54,0.00,40.00,15,10,0,0.00
2013-6-14,69,56,40,56,47,37,96,73,43,0.00,40.00,7,5,0,0.00
2013-8-1,32,32,32,32,32,32,100,100,100,0.00,40.00,2,2,0,0.00
2013-9-1,-200,0,200,-100,-100,-100,0,0,100,0.00,40.00,1,1,1,0.00
2013-9-8,-200,0,200,-100,-100,-100,0,0,100,0.00,40.00,3,3,5,0.00
2013-9-29,-200,0,200,-100,-100,-100,0,0,100,0.00,40.00,7,7,13,0.00
2013-10-9,68,64,61,61,60,60,98,88,79,0.00,40.00,7,4,12,0.00
2013-10-10,62,60,55,50,49,49,82,69,62,0.00,40.00,5,4,6,0.00
2013-10-11,66,60,56,60,52,48,81,75,73,0.00,40.00,4,3,9,0.00
2013-10-12,76,61,55,63,54,50,92,78,56,0.00,40.00,4,4,9,0.00
2013-10-13,64,46,59,63,17,-100,95,62,76,0.00,40.00,11,6,15,0.00
2013-10-14,64,46,37,47,41,35,100,84,55,0.00,40.00,4,2,6,0.00
2013-10-15,61,60,58,54,53,52,87,80,72,0.00,40.00,4,4,11,0.00
2013-10-16,62,59,53,57,53,48,93,82,73,0.00,40.00,6,4,12,0.00
2013-10-17,58,52,48,48,44,43,89,74,58,0.00,40.00,3,2,6,0.00
2013-10-18,59,50,39,51,45,39,100,84,68,0.00,40.00,4,2,8,0.00
2013-10-19,50,48,46,46,45,44,98,90,79,0.00,40.00,1,1,4,0.00
2013-10-20,48,45,44,43,41,40,98,85,73,0.00,40.00,11,7,16,0.00
2013-10-21,49,45,42,43,41,36,99,85,77,0.00,40.00,11,5,15,0.00
2013-10-22,49,46,43,41,40,38,87,77,71,0.00,40.00,6,6,18,0.00
2013-10-23,45,40,37,39,36,30,97,87,76,0.00,40.00,6,5,13,0.00
2013-10-24,45,45,45,41,41,41,87,87,87,0.00,40.00,5,5,12,0.00
2013-10-25,50,44,38,41,39,37,97,85,67,0.00,40.00,4,3,6,0.00
2013-10-26,48,44,39,41,39,38,95,83,70,0.00,40.00,24,12,30,0.00
2013-10-27,51,34,38,43,15,-100,96,75,74,0.00,40.00,6,4,9,0.00
2013-10-28,45,35,35,41,14,-100,90,71,46,0.00,40.00,6,3,14,0.00
2013-10-29,42,33,26,32,28,26,97,84,67,0.00,40.00,4,2,5,0.00
2013-10-31,57,54,52,53,50,46,99,87,80,0.00,40.00,5,4,10,0.00
2013-11-1,56,51,47,52,47,44,98,87,77,0.00,40.00,10,5,18,0.00
2013-11-2,44,42,39,43,36,31,96,79,64,0.00,40.00,4,3,9,0.00
2013-11-3,47,38,34,36,25,-100,90,70,61,0.00,40.00,6,4,12,0.00
2013-11-4,54,50,45,40,38,32,82,63,46,30.29,30.18,19,10,24,0.00
2013-11-5,57,52,50,51,48,42,99,88,73,30.23,30.08,7,2,12,0.00
2013-11-6,54,52,47,54,48,44,99,87,74,29.99,29.70,14,8,20,0.00
2013-11-7,43,40,38,37,35,33,94,83,72,30.03,29.91,10,7,22,0.00
2013-11-8,45,41,37,38,34,29,95,77,54,30.17,30.06,21,5,24,0.00
2013-11-9,48,43,42,48,34,-100,99,83,77,30.02,29.58,8,4,15,0.00
2013-11-10,45,42,40,41,38,34,95,85,68,30.14,29.67,14,9,24,0.00
2013-11-11,49,35,29,40,27,21,86,73,61,30.23,29.97,15,10,26,0.00
2013-11-12,34,31,28,28,22,14,93,69,54,30.50,30.40,15,8,26,0.00
2013-11-13,40,32,26,34,23,14,80,69,53,30.41,29.85,35,13,45,0.00
2013-11-14,41,38,35,34,30,27,75,73,71,29.83,29.81,16,12,26,0.00
2013-11-15,45,40,36,40,37,33,98,87,78,29.92,29.84,10,5,13,0.00
2013-11-16,56,46,37,56,40,-100,99,88,80,29.93,29.54,12,8,25,0.00
2013-11-17,61,56,49,60,56,47,99,99,95,29.54,29.01,25,11,38,0.00
2013-11-19,38,34,32,29,26,24,82,73,63,30.35,30.05,17,6,29,0.00
2013-11-20,47,42,35,36,32,30,81,70,55,30.33,30.24,15,9,21,0.00
2013-11-21,47,44,41,46,41,35,99,91,78,30.22,30.16,12,6,14,0.00
2013-11-22,43,34,29,43,30,24,99,87,71,30.34,30.16,13,9,26,0.00
2013-11-23,31,22,18,28,13,-100,93,75,62,30.49,30.20,15,9,29,0.00
2013-11-24,29,21,16,21,16,8,93,82,68,30.54,30.40,15,5,23,0.00
2013-11-25,41,38,36,36,35,29,99,90,69,29.97,29.80,22,10,37,0.00
2013-11-26,41,33,23,36,28,18,96,79,72,30.04,29.85,10,6,17,0.00
2013-11-27,27,22,17,19,17,14,90,79,61,30.16,30.04,9,6,20,0.00
2013-11-28,26,19,9,22,15,6,90,85,77,30.42,30.18,7,4,12,0.00
2013-11-29,36,26,13,30,19,10,89,76,59,30.59,30.42,24,7,28,0.00
2013-11-30,41,36,34,39,31,-100,99,87,72,30.47,30.01,29,12,35,0.00
2013-12-1,36,35,32,36,33,28,100,94,87,30.13,30.05,4,3,9,0.00
2013-12-2,39,31,23,28,26,21,94,81,56,30.06,29.94,6,3,9,0.00
2013-12-3,29,25,21,28,21,17,94,86,80,30.03,29.98,10,6,18,0.00
2013-12-4,45,33,28,44,32,25,99,95,90,29.99,29.47,18,10,33,0.00
2013-12-5,46,36,25,45,30,17,100,79,53,29.94,29.43,17,9,29,0.00
2013-12-6,27,23,16,19,15,11,83,71,61,30.31,30.13,12,6,23,0.00
2013-12-7,24,17,14,14,5,-100,81,66,59,30.52,30.34,11,7,18,0.00
2013-12-8,25,17,5,24,10,-1,94,76,57,30.53,30.18,7,4,16,0.00
2013-12-9,30,25,13,28,22,5,96,89,67,30.18,29.76,14,5,30,0.00
2013-12-10,20,13,5,13,8,1,86,79,67,29.97,29.80,15,6,27,0.00
2013-12-11,20,15,9,10,5,0,77,66,54,30.30,30.02,12,8,23,0.00
2013-12-12,21,16,8,12,8,4,84,71,64,30.30,30.02,11,7,21,0.00
2013-12-20,24,22,19,20,18,16,91,85,79,30.11,29.92,8,4,14,0.00
2013-12-21,29,24,22,23,18,-100,91,84,78,30.02,29.89,6,5,15,0.00
2013-12-22,24,20,15,19,16,11,93,85,69,30.13,29.90,11,7,21,0.00
2013-12-23,17,11,6,11,6,2,86,81,73,30.40,30.09,6,3,11,0.00
2013-12-24,11,1,-8,5,-42,-100,81,76,63,30.50,30.41,6,3,9,0.00
2013-12-25,25,20,12,24,18,7,96,91,78,30.45,30.02,25,11,33,0.00
2013-12-26,24,19,9,18,15,6,91,82,73,30.17,29.98,6,3,12,0.00
2013-12-27,38,10,0,37,-22,-100,95,84,76,30.21,29.84,15,3,19,0.00
2013-12-28,39,36,36,38,32,-100,99,93,92,29.96,29.79,9,4,15,0.00
2013-12-29,33,19,9,33,16,5,97,86,73,30.07,29.77,13,7,25,0.00
2013-12-30,6,1,-6,-1,-37,-100,83,76,63,30.24,30.07,8,3,12,0.00
2013-12-31,11,4,1,2,-50,-100,80,72,58,30.25,30.01,14,6,23,0.00
2014-1-1,9,2,-3,-2,-27,-100,81,72,56,30.48,30.25,9,5,17,0.00
2014-1-2,12,0,-6,-2,-59,-100,79,69,53,30.46,30.33,9,6,15,0.00